Location: Dana
(41.8364°N, 106.7042°W)
Time: 14:24:43
(UTC+00:00)

Altair - Pass Details

Date: 10 May 2026
Orbit: 1501 x 1682 km, 47.2° (Epoch: 6 June)

Event Time Altitude Azimuth Distance (km) Brightness Sun altitude
Rises 21:06:17 0° 295° (WNW) 4,930 10.4 54.4°
Reaches altitude 10° 21:10:03 10° 284° (WNW) 3,927 10.2 53.8°
Maximum altitude 21:18:01 28° 231° (SW) 2,727 10.2 52.6°
Drops below altitude 10° 21:25:48 10° 178° (S) 3,818 9.9 51.3°
Sets 21:29:27 0° 167° (SSE) 4,771 10.2 50.7°
